Weather History for Augusta Bush, GA

Change the Weather History Date:

Sunday, August 25, 2013

  Actual Average Record
Temperature  
Mean Temperature 73 °F 80 °F  
Max Temperature 85 °F 91 °F 99 °F (1968)
Min Temperature 60 °F 69 °F 56 °F (1997)
Degree Days  
Heating Degree Days 0 0  
Month to date heating degree days 0 0  
Since 1 June heating degree days 0 0  
Since 1 July heating degree days 0 0  
Cooling Degree Days 8 15  
Month to date cooling degree days 344 397  
Year to date cooling degree days 1402 1603  
Since 1 June cooling degree days 1193 1320  
Growing Degree Days 23 (Base 50)    
Moisture  
Dew Point 61 °F    
Average Humidity 70    
Maximum Humidity 100    
Minimum Humidity 40    
Precipitation  
Precipitation 0.00 in 0.14 in 2.71 in (1983)
Month to date precipitation 5.84 3.58  
Year to date precipitation 45.32 30.13  
Sea Level Pressure  
Sea Level Pressure 30.28 in    
Wind  
Wind Speed 5 mph (NE)    
Max Wind Speed 15 mph    
Max Gust Speed 24 mph    
Visibility 10 miles    
Events      
T = Trace of Precipitation, MM = Missing Value Source: NWS Daily Summary

Daily Weather History Graph

Daily Weather History Graph

Search for Another Location

Airport:

Trip Planner

Search our weather history database for the weather conditions in past years. The results will help you decide how hot, cold, wet, or windy it might be!

Date:

Astronomy

Aug. 25, 2013 Rise Set
Actual Time 6:57 AM EDT 8:01 PM EDT
Civil Twilight 6:31 AM EDT 8:27 PM EDT
Nautical Twilight 6:01 AM EDT 8:57 PM EDT
Astronomical Twilight 5:29 AM EDT 9:28 PM EDT
Moon 10:51 PM EDT (8/25) 11:40 AM EDT (8/25)
Length of Visible Light 13h 55m
Length of Day
13h 04m
Waning Gibbous, 76% of the Moon is Illuminated
Aug 25
Waning Gibbous
Aug 28
Last Quarter
Sep 5
New
Sep 12
First Quarter
Sep 19
Full

Hourly Weather History & Observations

Time (EDT) Temp. Heat Index Dew Point Humidity Pressure Visibility Wind Dir Wind Speed Gust Speed Precip Events Conditions
12:53 AM 69.1 °F - 66.9 °F 93% 30.24 in 9.0 mi Calm Calm - N/A   Clear
1:53 AM 66.9 °F - 64.9 °F 93% 30.25 in 10.0 mi NNE 3.5 mph - N/A   Clear
2:53 AM 66.9 °F - 64.9 °F 93% 30.25 in 10.0 mi Calm Calm - N/A   Clear
3:53 AM 64.9 °F - 64.0 °F 97% 30.25 in 9.0 mi Calm Calm - 0.01 in   Clear
4:53 AM 63.0 °F - 63.0 °F 100% 30.25 in 6.0 mi Calm Calm - N/A   Clear
5:53 AM 63.0 °F - 62.1 °F 97% 30.27 in 10.0 mi Calm Calm - 0.00 in   Clear
6:53 AM 63.0 °F - 62.1 °F 97% 30.29 in 10.0 mi NNW 5.8 mph - N/A   Clear
7:53 AM 66.0 °F - 64.0 °F 93% 30.31 in 10.0 mi NNW 4.6 mph - N/A   Clear
8:53 AM 71.1 °F - 64.9 °F 81% 30.32 in 10.0 mi Calm Calm - N/A   Clear
9:53 AM 75.0 °F - 62.1 °F 64% 30.34 in 10.0 mi ENE 9.2 mph - N/A   Clear
10:53 AM 78.1 °F - 59.0 °F 52% 30.34 in 10.0 mi ENE 12.7 mph - N/A   Clear
11:53 AM 81.0 °F 81.1 °F 57.9 °F 45% 30.33 in 10.0 mi ENE 11.5 mph 19.6 mph N/A   Clear
12:53 PM 82.0 °F 81.7 °F 57.0 °F 42% 30.31 in 10.0 mi East 12.7 mph - N/A   Clear
1:53 PM 82.9 °F 82.4 °F 57.0 °F 41% 30.29 in 10.0 mi East 8.1 mph 18.4 mph N/A   Clear
2:53 PM 84.9 °F 84.2 °F 57.9 °F 40% 30.26 in 10.0 mi ENE 6.9 mph 16.1 mph N/A   Partly Cloudy
3:53 PM 84.0 °F 83.3 °F 57.0 °F 40% 30.25 in 10.0 mi East 13.8 mph 19.6 mph N/A   Clear
4:53 PM 84.9 °F 84.2 °F 57.9 °F 40% 30.24 in 10.0 mi ENE 9.2 mph - N/A   Scattered Clouds
5:53 PM 82.0 °F 82.1 °F 59.0 °F 45% 30.23 in 10.0 mi ENE 8.1 mph - N/A   Mostly Cloudy
6:53 PM 81.0 °F 81.6 °F 60.1 °F 49% 30.25 in 10.0 mi ENE 4.6 mph - N/A   Mostly Cloudy
7:53 PM 73.9 °F - 63.0 °F 68% 30.25 in 10.0 mi Calm Calm - N/A   Mostly Cloudy
8:53 PM 69.1 °F - 63.0 °F 81% 30.27 in 10.0 mi Calm Calm - 0.01 in   Partly Cloudy
9:53 PM 64.9 °F - 64.0 °F 97% 30.28 in 10.0 mi Calm Calm - N/A   Clear
10:53 PM 64.0 °F - 62.1 °F 93% 30.30 in 10.0 mi Calm Calm - N/A   Clear
11:53 PM 64.0 °F - 61.0 °F 90% 30.30 in 10.0 mi Calm Calm - N/A   Clear